Regional Weather Roundup
Issued by NWS

Home | Current Version | Previous Version | Text Only | Print | Product List | Glossary On
Versions: 1 2 3 4 5 6 7 8 9 10 11 12 13 14 15 16 17 18 19 20 21 22 23 24 25 26 27 28 29 30 31 32 33 34 35 36 37 38 39 40 41 42 43 44 45 46 47 48 49 50
000
ASUS45 KREV 251410
RWRNV
NEVADA REGIONAL WEATHER ROUNDUP
NATIONAL WEATHER SERVICE RENO NV
700 AM PDT MON JUL 25 2016

NOTE: "FAIR" INDICATES FEW OR NO CLOUDS BELOW 12,000 FEET WITH NO
SIGNIFICANT WEATHER AND/OR OBSTRUCTIONS TO VISIBILITY.

NVZ001-003-004-251500-
WESTERN NEVADA

CITY           SKY/WX    TMP DP  RH WIND       PRES   REMARKS
RENO           SUNNY     61  32  33 CALM      30.16R
CARSON CITY    FAIR      55  34  44 NW3       30.19R
MINDEN         FAIR      46  34  61 SE3       30.19S
PYRAMID LAKE     N/A     75 N/A N/A CALM        N/A
FALLON         PTSUNNY   66  28  24 S8        30.09R
LOVELOCK       SUNNY     61  25  25 CALM      30.08R
HAWTHORNE      SUNNY     70  32  24 CALM      30.13R
$$

NVZ002-CAZ072-073-251500-
NORTHERN AND CENTRAL SIERRA

CITY           SKY/WX    TMP DP  RH WIND       PRES   REMARKS
S. LAKE TAHOE  SUNNY     39  32  76 S5        30.28R
TRUCKEE        SUNNY     37  28  70 CALM      30.29R
SQUAW VLY 8000 NOT AVBL
SUSANVILLE     SUNNY     59  36  41 CALM      30.14R
MAMMOTH LAKES  FAIR      46  24  43 CALM      30.33R
BRIDGEPORT       N/A     42  19  39 CALM      30.29R
$$

NVZ030-031-036-251500-
NORTHERN NEVADA

CITY           SKY/WX    TMP DP  RH WIND       PRES   REMARKS
ELKO           MOSUNNY   57  31  37 E5        30.17R
WINNEMUCCA     SUNNY     59  22  24 VRB5      30.11R
WENDOVER       MOSUNNY   70  34  26 CALM      30.09R
$$

NVZ035-037-251500-
CENTRAL NEVADA

CITY           SKY/WX    TMP DP  RH WIND       PRES   REMARKS
ELY            SUNNY     58  24  27 S7        30.25R
EUREKA           N/A     57  24  28 S5        30.21R
$$

NVZ013-014-251500-
SOUTH CENTRAL NEVADA

CITY           SKY/WX    TMP DP  RH WIND       PRES   REMARKS
TONOPAH        SUNNY     65  17  15 N9        30.19R
$$

NVZ017-020-022-251500-
SOUTHERN NEVADA

CITY           SKY/WX    TMP DP  RH WIND       PRES   REMARKS
LAS VEGAS      MOSUNNY   90  34  13 VRB5      29.88R
N. LAS VEGAS   SUNNY     87  44  22 CALM      29.92R
NELLIS AFB     NOT AVBL
HENDERSON      SUNNY     88  39  17 SW13      29.95R
MERCURY        SUNNY     79  30  16 NE3       30.00R
$$



USA.gov is the U.S. government's official web portal to all federal, state and local government web resources and services.